Regional Weather Roundup
Issued by NWS Bismarck, ND

Home | Current Version | Previous Version | Text Only | Print | Product List | Glossary On
Versions: 1 2 3 4 5 6 7 8 9 10 11 12 13 14 15 16 17 18 19 20 21 22 23 24 25 26 27 28 29 30 31 32 33 34 35 36 37 38 39 40 41 42 43 44 45 46 47 48 49 50
776
ASUS43 KBIS 271202
RWRBIS

NWR BROADCAST TEXT
NATIONAL WEATHER SERVICE BISMARCK ND
700 AM CDT THU JUL 27 2017

NOTE: "FAIR" INDICATES FEW OR NO CLOUDS BELOW 12,000 FEET WITH NO
SIGNIFICANT WEATHER AND/OR OBSTRUCTIONS TO VISIBILITY.


CITY           SKY/WX    TMP DP  RH WIND       PRES   REMARKS
WILLISTON      LGT RAIN  69  58  67 SE16      30.10S
MINOT          CLOUDY    69  58  67 S13G21    30.11F
MINOT AFB      CLOUDY    63  57  83 SE6       30.10F
BISMARCK       CLOUDY    67  58  72 N10       30.19R
DICKINSON      CLEAR     60  55  83 NE14      30.11R
GARRISON         N/A     62  62 100 E7        30.17F
HETTINGER ARPT CLEAR     59  52  77 E7        30.13R
JAMESTOWN      PTCLDY    56  54  93 CALM      30.15R
HAZEN          CLOUDY    64  61  88 NE8G15    30.19S
LINTON         PTSUNNY  N/A N/A N/A SE7       30.16S
MANDAN         CLOUDY    64  57  77 NE9       30.18R
STANLEY        PTSUNNY   63  63 100 SE10      30.15R
TIOGA          FAIR      64  64 100 S18       30.12F FOG
WATFORD CITY   FAIR      66  55  68 SE21G32   30.06F
$$

CITY           SKY/WX    TMP DP  RH WIND       PRES   REMARKS
GRAND FORKS    PTCLDY    58  57  97 CALM      30.11S
GRAND FORKS AF CLEAR     56  55  98 CALM      30.12S
DEVILS LAKE    CLOUDY    63  60  90 SW5       30.17R
FARGO          CLEAR     58  56  93 NW5       30.12S
CAVALIER       FAIR      61  57  88 W3        30.11R
GRAFTON        FAIR      57  57 100 W5        30.13R
GWINNER        SUNNY     59  57  94 CALM      30.14R
LANGDON        FAIR      55  55 100 CALM      30.16R
ROLLA            N/A     59  59 100 SW3       30.17S
$$

CITY           SKY/WX    TMP DP  RH WIND       PRES   REMARKS
ABERDEEN       CLEAR     59  58  96 NW5       30.15R
MOBRIDGE       CLEAR     64  58  80 E7        30.12R
BUFFALO          N/A     67  55  65 SE9       30.04S
RAPID CITY     CLOUDY    67  58  72 SE6       30.16S
GLASGOW        CLEAR     68  49  50 E20       29.98R
SIDNEY         PTCLDY    69  53  56 VRB7      30.06R
WOLF POINT     PTCLDY    71  51  49 E16       30.01S
GLENDIVE       PTCLDY    68  52  56 E8        30.04R
MILES CITY     MOCLDY    72  51  47 S9        30.01S
BAKER          CLEAR     64  49  57 E10       30.08S
$$

CITY           SKY/WX    TMP DP  RH WIND       PRES   REMARKS
BILLINGS       CLOUDY    71  52  50 SW7       30.05S
GREAT FALLS    CLOUDY    67  43  41 SW9       30.03R
$$





USA.gov is the U.S. government's official web portal to all federal, state and local government web resources and services.